Date,TemperatureHighF,TemperatureAvgF,TemperatureLowF,DewpointHighF,DewpointAvgF,DewpointLowF,HumidityHigh,HumidityAvg,HumidityLow,PressureMaxIn,PressureMinIn,WindSpeedMaxMPH,WindSpeedAvgMPH,GustSpeedMaxMPH,PrecipitationSumIn
2013-2-1,29,16,1,22,9,-6,81,73,69,30.37,30.01,10,2,13,0.00
2013-2-2,42,32,25,34,26,21,84,78,69,30.17,30.02,13,1,13,0.04
2013-2-3,45,35,20,33,26,15,86,69,45,30.19,29.77,11,2,13,0.00
2013-2-4,39,28,23,30,22,19,86,79,69,30.02,29.76,14,2,14,0.00
2013-2-5,56,39,26,34,27,20,88,65,39,30.05,29.79,10,2,10,0.00
2013-2-6,54,39,26,44,32,20,84,76,61,30.05,29.82,12,2,13,0.00
2013-2-7,41,33,28,37,27,23,85,81,75,30.23,29.88,8,2,12,0.00
2013-2-8,33,28,25,27,24,21,88,83,78,30.29,30.09,10,2,11,0.00
2013-2-9,50,38,27,39,32,24,90,80,64,30.10,29.61,12,5,14,0.00
2013-2-10,42,35,30,40,31,23,93,84,75,29.82,29.26,16,7,19,0.02
2013-2-11,41,31,20,26,22,14,81,70,54,30.13,29.82,14,5,18,0.00
2013-2-12,51,32,17,28,20,13,87,63,28,30.13,29.89,10,1,13,0.00
2013-2-13,56,38,20,33,25,15,87,62,37,29.90,29.72,10,2,12,0.00
2013-2-14,46,36,20,31,25,13,87,68,43,30.27,29.80,14,5,15,0.00
2013-2-15,35,24,14,24,16,8,83,73,50,30.33,30.24,10,1,16,0.02
2013-2-16,36,25,12,26,18,8,84,76,65,30.30,29.98,9,1,12,0.00
2013-2-17,56,35,19,39,27,15,87,73,49,29.98,29.55,11,3,12,0.00
2013-2-18,38,32,23,31,24,16,85,72,54,30.06,29.56,16,4,16,0.00
2013-2-19,32,19,10,15,5,1,73,56,33,30.35,30.07,10,4,11,0.00
2013-2-20,23,14,5,15,5,-2,81,68,53,30.35,30.16,10,1,10,0.00
2013-2-21,24,21,20,18,14,10,86,74,62,30.20,29.85,12,1,12,0.00
2013-2-22,34,21,9,19,13,2,84,71,50,30.01,29.85,10,2,13,0.08
2013-2-23,39,20,0,25,12,-6,82,71,54,29.98,29.79,9,0,10,0.00
2013-2-24,40,29,18,29,23,13,86,78,62,30.07,29.85,7,0,8,0.00
2013-2-25,42,30,25,30,24,21,87,78,60,30.08,29.90,11,1,11,0.00
2013-2-26,30,26,22,25,22,19,89,86,78,29.93,29.81,9,2,12,0.00
2013-2-27,43,32,23,28,24,19,86,74,51,30.11,29.91,12,6,13,0.00
2013-2-28,32,28,24,25,22,18,83,78,72,30.23,30.10,10,4,13,0.00